Weather History for KTIF - March, 2012

Change the Weather History Date:

Friday, March 16, 2012

  Actual Average (KLBF) Record (KLBF)
Temperature  
Mean Temperature 58 °F 38 °F  
Max Temperature 81 °F 53 °F 91 °F (2015)
Min Temperature 34 °F 24 °F -7 °F (1906)
Degree Days  
Heating Degree Days 8 27  
Month to date heating degree days 468  
Since 1 July heating degree days 5496  
Cooling Degree Days 0 0  
Month to date cooling degree days 0  
Year to date cooling degree days 0  
Growing Degree Days 8 (Base 50)    
Moisture  
Dew Point 32 °F    
Average Humidity 46    
Maximum Humidity 89    
Minimum Humidity 13    
Precipitation  
Precipitation 0.00 in 0.03 in 0.67 in (1987)
Month to date precipitation 0.47  
Year to date precipitation 1.31  
Snow  
Snow 0.00 in 0.10 in 4.10 in (1983)
Month to date snowfall 2.4  
Since 1 July snowfall 23.3  
Snow Depth -    
Sea Level Pressure  
Sea Level Pressure 29.84 in    
Wind  
Wind Speed 5 mph (South)    
Max Wind Speed 23 mph    
Max Gust Speed 48 mph    
Visibility 10 miles    
Events      
T = Trace of Precipitation, MM = Missing Value Source: NWS Daily Summary

Daily Weather History Graph

Daily Weather History Graph

Search for Another Location

Airport or City:

Trip Planner

Search our weather history database for the weather conditions in past years. The results will help you decide how hot, cold, wet, or windy it might be!

Date:

Astronomy

Mar. 16, 2012 Rise Set
Actual Time 7:51 AM CDT 7:50 PM CDT
Civil Twilight 7:23 AM CDT 8:18 PM CDT
Nautical Twilight 6:51 AM CDT 8:50 PM CDT
Astronomical Twilight 6:18 AM CDT 9:24 PM CDT
Moon 4:16 AM CDT (3/16) 2:07 PM CDT (3/16)
Length of Visible Light 12h 54m
Length of Day
11h 59m
Waning Crescent, 32% of the Moon is Illuminated
Mar 16
Waning Crescent
Mar 22
New
Mar 30
First Quarter
Apr 6
Full
Apr 13
Last Quarter

Hourly Weather History & Observations

Time (CDT) Temp. Windchill Dew Point Humidity Pressure Visibility Wind Dir Wind Speed Gust Speed Precip Events Conditions
12:15 AM 41.5 °F - 30.0 °F 64% 29.98 in 10.0 mi Calm Calm - N/A   Clear
12:35 AM 45.7 °F - 30.7 °F 56% 29.98 in 10.0 mi Calm Calm - N/A   Clear
12:55 AM 46.2 °F - 30.9 °F 55% 29.97 in 10.0 mi Calm Calm - N/A   Clear
1:15 AM 43.2 °F - 31.1 °F 62% 29.97 in 10.0 mi Calm Calm - N/A   Clear
1:35 AM 44.2 °F - 31.1 °F 60% 29.96 in 10.0 mi Calm Calm - N/A   Clear
1:55 AM 42.8 °F - 31.5 °F 64% 29.96 in 10.0 mi Calm Calm - N/A   Clear
2:15 AM 43.2 °F - 31.1 °F 62% 29.96 in 10.0 mi Calm Calm - N/A   Clear
2:35 AM 41.0 °F - 31.1 °F 68% 29.96 in 10.0 mi Calm Calm - N/A   Clear
2:55 AM 41.2 °F - 31.1 °F 67% 29.95 in 10.0 mi Calm Calm - N/A   Clear
3:35 AM 41.2 °F - 30.9 °F 67% 29.93 in 10.0 mi Calm Calm - N/A   Clear
3:55 AM 39.6 °F - 30.7 °F 71% 29.93 in 10.0 mi Calm Calm - N/A   Clear
4:15 AM 38.7 °F - 30.4 °F 72% 29.92 in 10.0 mi Calm Calm - N/A   Clear
4:35 AM 37.4 °F - 30.2 °F 75% 29.92 in 10.0 mi Calm Calm - N/A   Clear
4:55 AM 37.2 °F - 30.0 °F 75% 29.91 in 10.0 mi Calm Calm - N/A   Clear
5:15 AM 35.8 °F - 31.1 °F 83% 29.91 in 10.0 mi Calm Calm - N/A   Clear
5:35 AM 35.6 °F - 30.7 °F 82% 29.91 in 10.0 mi Calm Calm - N/A   Clear
5:55 AM 36.3 °F - 31.6 °F 83% 29.91 in 10.0 mi Calm Calm - N/A   Clear
6:15 AM 36.3 °F - 31.6 °F 83% 29.91 in 10.0 mi Calm Calm - N/A   Clear
6:35 AM 37.0 °F - 32.0 °F 82% 29.91 in 10.0 mi Calm Calm - N/A   Clear
6:55 AM 37.8 °F - 32.5 °F 81% 29.90 in 10.0 mi Calm Calm - N/A   Clear
7:15 AM 36.1 °F - 31.6 °F 84% 29.90 in 10.0 mi Calm Calm - N/A   Clear
7:35 AM 37.6 °F - 32.7 °F 83% 29.90 in 10.0 mi Calm Calm - N/A   Clear
7:55 AM 35.4 °F - 32.0 °F 87% 29.89 in 10.0 mi Calm Calm - N/A   Clear
8:15 AM 34.9 °F - 32.0 °F 89% 29.90 in 10.0 mi Calm Calm - N/A   Clear
8:35 AM 36.9 °F - 33.1 °F 86% 29.90 in 10.0 mi Calm Calm - N/A   Clear
8:55 AM 39.6 °F - 35.4 °F 85% 29.90 in 10.0 mi Calm Calm - N/A   Clear
9:15 AM 45.0 °F 43.5 °F 37.9 °F 76% 29.90 in 10.0 mi South 3.5 mph - N/A   Clear
9:35 AM 53.6 °F - 36.1 °F 52% 29.89 in 10.0 mi SSW 5.8 mph - N/A   Clear
9:55 AM 57.9 °F - 36.9 °F 45% 29.89 in 10.0 mi SSW 6.9 mph - N/A   Clear
10:55 AM 67.5 °F - 41.0 °F 38% 29.87 in 10.0 mi SW 13.8 mph 19.6 mph N/A   Clear
11:15 AM 70.0 °F - 41.0 °F 35% 29.87 in 10.0 mi SSW 13.8 mph 21.9 mph N/A   Clear
11:35 AM 72.0 °F - 37.9 °F 29% 29.87 in 10.0 mi SSW 16.1 mph - N/A   Clear
12:15 PM 75.0 °F - 34.3 °F 23% 29.85 in 10.0 mi South 20.7 mph 26.5 mph N/A   Clear
12:35 PM 76.5 °F - 32.7 °F 20% 29.85 in 10.0 mi South 19.6 mph 25.3 mph N/A   Clear
12:55 PM 76.6 °F - 31.8 °F 19% 29.83 in 10.0 mi SSW 16.1 mph 27.6 mph N/A   Clear
1:15 PM 78.1 °F - 29.3 °F 17% 29.82 in 10.0 mi South 17.3 mph 26.5 mph N/A   Clear
1:35 PM 78.4 °F - 26.6 °F 15% 29.81 in 10.0 mi South 20.7 mph 31.1 mph N/A   Clear
1:55 PM 79.0 °F - 26.8 °F 15% 29.80 in 10.0 mi South 17.3 mph 28.8 mph N/A   Clear
2:15 PM 79.9 °F - 27.1 °F 14% 29.79 in 10.0 mi South 23.0 mph 28.8 mph N/A   Clear
2:35 PM 79.5 °F - 28.9 °F 16% 29.78 in 10.0 mi South 15.0 mph 27.6 mph N/A   Clear
2:55 PM 79.9 °F - 30.6 °F 17% 29.76 in 10.0 mi SSW 15.0 mph 25.3 mph N/A   Clear
3:15 PM 81.1 °F - 28.4 °F 15% 29.75 in 10.0 mi South 18.4 mph 24.2 mph N/A   Clear
3:35 PM 81.1 °F - 25.7 °F 13% 29.74 in 10.0 mi South 19.6 mph 26.5 mph N/A   Clear
3:55 PM 81.9 °F - 25.5 °F 13% 29.73 in 10.0 mi South 21.9 mph 27.6 mph N/A   Clear
4:15 PM 81.5 °F - 26.1 °F 13% 29.73 in 10.0 mi South 16.1 mph 48.3 mph N/A   Clear
4:35 PM 81.1 °F - 25.9 °F 13% 29.72 in 10.0 mi SSE 17.3 mph 28.8 mph N/A   Clear
4:55 PM 80.8 °F - 26.2 °F 14% 29.72 in 10.0 mi South 20.7 mph 29.9 mph N/A   Clear
5:15 PM 80.8 °F - 25.7 °F 13% 29.71 in 10.0 mi South 20.7 mph 27.6 mph N/A   Clear
5:35 PM 80.8 °F - 25.7 °F 13% 29.71 in 10.0 mi South 17.3 mph 25.3 mph N/A   Clear
5:55 PM 79.9 °F - 32.0 °F 18% 29.71 in 10.0 mi South 20.7 mph 26.5 mph N/A   Clear
6:15 PM 79.3 °F - 33.4 °F 19% 29.71 in 10.0 mi South 13.8 mph 20.7 mph N/A   Clear
6:35 PM 78.3 °F - 32.7 °F 19% 29.71 in 10.0 mi South 17.3 mph 24.2 mph N/A   Clear
6:55 PM 77.0 °F - 33.1 °F 20% 29.71 in 10.0 mi South 17.3 mph 23.0 mph N/A   Clear
7:15 PM 75.6 °F - 35.8 °F 24% 29.72 in 10.0 mi South 15.0 mph 19.6 mph N/A   Clear
7:35 PM 73.2 °F - 36.5 °F 26% 29.72 in 10.0 mi SSE 10.4 mph - N/A   Clear
7:55 PM 69.4 °F - 37.0 °F 31% 29.72 in 10.0 mi SSE 8.1 mph - N/A   Clear
8:15 PM 66.2 °F - 37.6 °F 35% 29.72 in 10.0 mi SSE 6.9 mph - N/A   Clear
8:35 PM 63.9 °F - 39.2 °F 40% 29.72 in 10.0 mi SE 5.8 mph - N/A   Clear
8:55 PM 61.9 °F - 40.3 °F 45% 29.72 in 10.0 mi SSE 8.1 mph - N/A   Clear
9:15 PM 61.7 °F - 40.8 °F 46% 29.72 in 10.0 mi SSE 6.9 mph - N/A   Clear
9:35 PM 60.8 °F - 41.0 °F 48% 29.72 in 10.0 mi SSE 9.2 mph - N/A   Clear
9:55 PM 59.7 °F - 41.7 °F 51% 29.72 in 10.0 mi SSE 8.1 mph - N/A   Clear
10:15 PM 59.5 °F - 42.8 °F 54% 29.72 in 10.0 mi SSE 8.1 mph - N/A   Clear
10:35 PM 58.6 °F - 43.2 °F 56% 29.71 in 10.0 mi SSE 10.4 mph - N/A   Clear
10:55 PM 57.6 °F - 43.7 °F 60% 29.71 in 10.0 mi SE 8.1 mph - N/A   Clear
11:15 PM 56.5 °F - 44.4 °F 64% 29.71 in 10.0 mi SE 6.9 mph - N/A   Clear
11:35 PM 54.0 °F - 43.9 °F 69% 29.71 in 10.0 mi SE 5.8 mph - N/A   Clear
11:55 PM 51.4 °F - 43.3 °F 74% 29.71 in 10.0 mi Calm Calm - N/A   Clear